Вернуться в каталог

STARLINK-31877

АктивенСвязьVLEO
NORAD 59675·PAYLOAD·🇺🇸 United States

Запущен May 6, 2024 с Cape Canaveral Space Force Station

Loading…

Ближайшие Пролёты (ближайшие 24 часа)

TLE

СвежийSource: CelesTrak SupGP

Эпоха: Sep 14, 2026, 22:51 UTC

1 59675C 24084X   26257.95256944  .00046120  00000+0  16708-2 0  2579
2 59675  43.0010  53.0550 0001483 276.1687 206.7920 15.27549345    15

Отслеживайте STARLINK-31877 в реальном времени с AllMySat

Download on the App Store